Danbury, CT

11:59 PM EDT on July 27, 2017 (GMT -0400)
Danbury Municipal

Weather History for KDXR - April, 2012

Change the Weather History Date:

Friday, April 27, 2012

  Actual Average Record
Temperature  
Mean Temperature 46 °F -  
Max Temperature 53 °F 62 °F 89 °F (1962)
Min Temperature 39 °F 40 °F 27 °F (2002)
Degree Days  
Heating Degree Days 19    
Moisture  
Dew Point 37 °F    
Average Humidity 69    
Maximum Humidity 100    
Minimum Humidity 43    
Precipitation  
Precipitation 0.01 in - - ()
Sea Level Pressure  
Sea Level Pressure 29.76 in    
Wind  
Wind Speed 8 mph (WNW)    
Max Wind Speed 18 mph    
Max Gust Speed 33 mph    
Visibility 9 miles    
Events Rain    
Averages and records for this station are not official NWS values.
T = Trace of Precipitation, MM = Missing Value Source: NWS Daily Summary

Daily Weather History Graph

Daily Weather History Graph

Search for Another Location

Airport or City:

Trip Planner

Search our weather history database for the weather conditions in past years. The results will help you decide how hot, cold, wet, or windy it might be!

Date:

Astronomy

Apr. 27, 2012 Rise Set
Actual Time 5:55 AM EDT 7:47 PM EDT
Civil Twilight 5:26 AM EDT 8:17 PM EDT
Nautical Twilight 4:50 AM EDT 8:53 PM EDT
Astronomical Twilight 4:11 AM EDT 9:33 PM EDT
Moon 10:30 AM EDT (4/27) 12:34 AM EDT (4/27)
Length of Visible Light 14h 51m
Length of Day
13h 51m
Waxing Crescent, 33% of the Moon is Illuminated
Apr 27
Waxing Crescent
Apr 29
First Quarter
May 5
Full
May 12
Last Quarter
May 20
New

Hourly Weather History & Observations

Time (EDT) Temp. Windchill Dew Point Humidity Pressure Visibility Wind Dir Wind Speed Gust Speed Precip Events Conditions
12:04 AM 53.6 °F - 53.6 °F 100% 29.59 in 1.8 mi West 4.6 mph - N/A   Overcast
12:16 AM 53.6 °F - 53.6 °F 100% 29.58 in 0.8 mi WSW 3.5 mph - N/A   Overcast
12:53 AM 53.1 °F - 53.1 °F 100% 29.57 in 0.8 mi West 4.6 mph - N/A   Mist
1:05 AM 53.6 °F - 53.6 °F 100% 29.57 in 1.2 mi SW 4.6 mph - N/A   Overcast
1:31 AM 53.6 °F - 53.6 °F 100% 29.58 in 3.0 mi Variable 4.6 mph - 0.00 in Rain Light Rain
1:45 AM 53.6 °F - 53.6 °F 100% 29.59 in 10.0 mi WSW 9.2 mph - 0.00 in   Overcast
1:53 AM 53.1 °F - 53.1 °F 100% 29.59 in 10.0 mi West 6.9 mph - 0.00 in   Overcast
2:01 AM 51.8 °F - 51.8 °F 100% 29.59 in 10.0 mi West 11.5 mph 19.6 mph N/A   Overcast
2:15 AM 51.8 °F - 48.2 °F 88% 29.60 in 10.0 mi West 8.1 mph - N/A   Overcast
2:53 AM 51.1 °F - 45.0 °F 80% 29.62 in 10.0 mi WNW 6.9 mph 18.4 mph N/A   Overcast
3:10 AM 50.0 °F - 44.6 °F 82% 29.62 in 10.0 mi West 8.1 mph 17.3 mph N/A   Overcast
3:41 AM 48.2 °F - 42.8 °F 82% 29.63 in 10.0 mi West 11.5 mph 17.3 mph N/A   Overcast
3:53 AM 48.9 °F - 42.1 °F 77% 29.64 in 10.0 mi West 13.8 mph 20.7 mph N/A   Overcast
4:14 AM 48.2 °F - 37.4 °F 66% 29.65 in 10.0 mi WNW 10.4 mph 23.0 mph 0.01 in   Overcast
4:53 AM 46.0 °F 42.5 °F 34.0 °F 63% 29.67 in 10.0 mi West 6.9 mph - 0.01 in   Scattered Clouds
5:53 AM 46.0 °F 41.4 °F 33.1 °F 61% 29.70 in 10.0 mi WNW 9.2 mph - N/A   Mostly Cloudy
6:53 AM 45.0 °F 39.7 °F 32.0 °F 60% 29.73 in 10.0 mi NW 10.4 mph 18.4 mph N/A   Clear
7:53 AM 46.0 °F 40.2 °F 30.9 °F 56% 29.75 in 10.0 mi WNW 12.7 mph 24.2 mph N/A   Clear
8:53 AM 46.0 °F 40.6 °F 30.0 °F 54% 29.78 in 10.0 mi WNW 11.5 mph 27.6 mph N/A   Scattered Clouds
9:53 AM 48.0 °F - 28.9 °F 48% 29.81 in 10.0 mi WNW 12.7 mph 24.2 mph N/A   Partly Cloudy
10:53 AM 48.9 °F - 28.9 °F 46% 29.82 in 10.0 mi NW 18.4 mph 27.6 mph N/A   Partly Cloudy
11:53 AM 51.1 °F - 28.9 °F 43% 29.84 in 10.0 mi WNW 10.4 mph 21.9 mph N/A   Scattered Clouds
12:53 PM 50.0 °F - 28.9 °F 44% 29.86 in 10.0 mi NNW 17.3 mph 26.5 mph N/A   Scattered Clouds
1:53 PM 48.9 °F - 28.9 °F 46% 29.88 in 10.0 mi West 18.4 mph 32.2 mph N/A   Clear
2:53 PM 48.9 °F - 28.9 °F 46% 29.91 in 10.0 mi WNW 16.1 mph 27.6 mph N/A   Partly Cloudy
4:53 PM 46.0 °F 39.9 °F 26.1 °F 46% 29.96 in 10.0 mi WNW 13.8 mph 20.7 mph N/A   Scattered Clouds
5:53 PM 44.1 °F 37.4 °F 24.1 °F 45% 29.98 in 10.0 mi West 13.8 mph 33.4 mph N/A   Partly Cloudy
6:53 PM 42.1 °F 35.2 °F 23.0 °F 47% 30.01 in 10.0 mi WNW 12.7 mph 25.3 mph N/A   Scattered Clouds
7:53 PM 41.0 °F 33.5 °F 23.0 °F 49% 30.05 in 10.0 mi WNW 13.8 mph 21.9 mph N/A   Mostly Cloudy
8:53 PM 39.9 °F 35.8 °F 24.1 °F 53% 30.07 in 10.0 mi WNW 5.8 mph 19.6 mph N/A   Scattered Clouds
9:53 PM 39.0 °F 36.8 °F 24.1 °F 55% 30.09 in 10.0 mi WNW 3.5 mph - N/A   Partly Cloudy
10:53 PM 39.0 °F 33.4 °F 24.1 °F 55% 30.12 in 10.0 mi NNW 8.1 mph - N/A   Clear